RH
35 31 33 83 73 70 87 93 94 88 86 94 100 100 100 93 88 83 79 80 80 80 84 82 75 73 68 66 62 65 70 76 76 78 74 73 72 74 73 70 63 58 55
37 33 29 40 83 73 76 88 93 92 91 93 99 99 99 93 81 72 74 76 79 78 75 77 75 72 68 67 65 64 69 73 77 78 81 88 74 68 68 68 65 60 55
41 36 32 29 36 81 73 80 86 93 88 84 87 92 90 86 78 72 68 68 66 62 64 69 72 69 68 67 66 64 65 68 74 76 74 88 92 78 59 54 52 54 54
38 36 35 31 27 27 69 82 83 87 90 92 86 86 82 84 80 74 67 64 64 62 65 69 72 69 70 70 69 68 66 68 74 80 79 74 68 76 80 63 56 52 53
41 39 36 31 28 29 36 79 86 90 91 92 91 87 89 83 80 80 80 80 79 72 74 71 71 73 77 75 74 75 74 72 71 72 75 79 81 79 79 87 78 72 67
47 42 37 44 44 42 41 63 84 91 96 97 96 95 91 88 89 91 92 92 88 94 92 90 90 89 84 82 81 80 80 79 77 77 77 78 78 87 83 88 83 82 78
50 48 65 66 54 51 50 56 72 80 83 92 100 100 99 98 98 99 100 99 97 93 91 92 87 83 80 80 86 93 91 85 85 87 86 83 83 82 85 85 90 92 88
52 57 67 64 57 54 51 50 53 56 56 63 75 88 98 98 98 96 89 84 77 70 68 72 82 90 91 90 93 99 99 94 96 94 98 99 100 100 100 97 96 99 95
60 66 73 67 62 58 55 52 52 51 48 45 45 45 45 45 46 47 46 46 47 47 48 56 66 81 99 100 98 96 100 100 99 93 93 99 100 98 99 100 100 98 99
83 87 82 72 68 64 63 62 61 60 60 55 51 48 48 49 50 52 54 55 56 58 64 71 76 85 96 100 100 100 100 98 87 81 74 86 99 99 99 100 98 99 99
90 88 84 73 68 67 69 70 69 67 68 68 69 68 68 67 67 67 70 71 74 78 85 93 98 99 97 100 98 100 96 92 92 94 87 93 99 99 99 98 97 96 96
88 85 82 74 71 72 75 74 75 74 75 75 75 75 77 77 78 80 83 87 89 88 89 94 98 100 98 100 100 100 100 100 97 93 90 96 93 97 97 95 94 93 93
87 86 83 78 73 72 75 75 74 74 77 77 77 79 79 80 81 85 91 94 92 90 90 90 90 90 92 96 97 97 96 93 92 94 98 94 94 92 91 89 89 87 88
83 85 86 82 73 70 74 75 72 72 74 77 78 78 78 79 81 81 82 82 82 81 80 80 84 88 91 92 93 92 92 93 95 94 91 92 92 91 89 85 82 82 83
85 83 84 86 75 72 74 74 68 68 72 76 78 78 77 78 81 80 81 80 79 79 80 80 82 84 88 90 91 91 92 93 93 93 92 90 88 87 87 85 83 79 71
82 81 80 81 77 71 70 70 67 68 72 76 77 78 80 81 82 83 84 84 83 84 86 88 90 92 94 96 96 94 92 91 90 94 99 99 99 100 94 71 62 56 54
82 80 79 78 72 68 65 68 67 69 73 77 80 83 85 87 89 90 90 89 89 89 90 92 92 97 100 99 95 92 90 93 100 99 99 98 93 81 78 87 77 93 90
71 78 76 73 67 64 65 67 70 72 77 81 84 86 88 90 94 94 94 94 93 92 93 93 94 98 100 90 80 81 87 97 98 88 62 50 50 52 51 52 57 68 75
59 54 64 68 68 66 66 69 74 76 79 84 87 91 92 93 96 98 98 96 95 94 94 99 100 99 100 98 88 87 84 64 50 46 54 61 80 91 56 44 49 57 67
68 70 71 72 70 70 67 72 77 80 83 84 88 91 94 94 95 95 98 98 98 99 100 100 100 100 98 88 68 47 37 41 49 58 63 62 67 77 77 50 45 44 42
70 76 76 76 74 71 71 76 78 81 79 84 91 94 96 96 95 97 99 100 100 100 99 94 85 69 56 48 36 36 37 41 53 58 63 65 76 70 72 76 61 53 66
72 75 76 76 74 72 73 77 78 77 81 85 90 96 99 100 98 97 100 100 100 95 84 76 73 68 69 72 60 47 45 45 42 44 45 48 52 60 63 60 54 77 87
67 70 74 79 78 76 78 80 77 81 83 88 94 97 98 100 100 100 100 100 94 83 78 73 75 80 77 77 82 78 61 40 39 42 49 69 79 72 56 48 74 78 78
70 72 75 80 85 82 78 76 77 82 86 93 99 100 100 99 100 100 99 94 87 81 72 70 68 68 65 65 70 74 71 73 50 52 52 47 48 58 53 52 57 65 68
98 92 90 83 79 78 82 84 83 85 91 96 100 100 100 100 100 100 98 92 84 71 61 51 45 54 56 48 50 51 53 53 51 44 49 43 38 42 45 48 55 66 74
74 71 71 72 73 74 78 83 88 91 92 99 100 100 100 100 100 100 99 94 82 73 64 56 51 45 40 37 39 47 52 50 65 60 53 52 44 42 45 50 55 65 80
Wind_Speed
12 7 4 14 17 19 24 29 30 31 31 31 31 29 29 27 26 25 24 24 23 24 25 24 22 21 22 20 19 19 18 18 16 14 16 20 22 23 24 23 23 23 22
5 8 9 11 20 23 23 25 24 27 31 33 31 26 27 28 27 25 26 26 26 25 25 26 25 24 25 24 23 22 22 21 19 9 4 3 6 13 21 23 24 24 22
9 7 8 15 13 20 23 26 30 29 28 28 29 21 19 23 25 27 27 27 25 26 26 26 27 25 26 27 26 24 24 24 18 21 10 1 4 2 4 6 8 13 17
6 5 6 14 16 18 22 25 26 28 31 29 27 28 26 20 26 27 25 26 27 26 25 26 26 28 28 27 27 25 26 26 24 18 25 25 12 4 3 7 9 10 14
8 8 9 13 15 16 19 22 22 22 26 29 31 30 28 25 24 24 25 25 24 24 24 24 26 27 27 26 27 27 27 26 27 26 17 21 27 22 10 6 9 11 14
9 8 10 8 9 10 14 19 21 21 21 22 26 26 29 27 23 20 19 19 22 21 23 23 25 26 28 28 28 28 28 27 28 27 27 24 12 9 13 8 12 10 13
9 8 8 9 11 12 12 15 20 19 18 19 20 21 20 19 18 17 16 17 18 20 20 20 20 22 22 22 21 21 21 23 22 21 23 24 26 24 20 15 5 7 8
7 9 10 16 16 15 16 17 16 15 13 12 13 13 13 14 15 14 14 14 14 13 13 14 17 20 21 21 20 20 19 17 16 14 13 13 14 15 18 17 7 1 5
5 7 7 14 19 17 17 18 18 15 12 10 8 8 7 7 7 8 9 11 12 14 15 15 15 16 20 21 19 17 17 15 14 11 9 9 10 11 13 12 12 7 3
4 6 7 12 11 12 13 13 13 13 12 10 8 7 7 8 9 10 10 11 11 11 12 12 11 12 16 17 19 19 18 16 13 11 8 9 9 7 7 7 6 8 7
5 5 7 12 12 12 11 11 10 9 9 8 8 7 6 5 5 6 6 6 6 7 7 7 5 7 9 10 15 15 14 12 10 8 7 7 6 5 5 4 5 5 6
6 6 9 15 14 13 12 11 10 9 8 7 6 6 4 3 2 3 4 5 5 5 5 5 5 6 7 8 8 9 8 8 8 7 6 6 4 5 5 4 3 4 4
7 6 6 8 11 12 12 11 9 8 7 6 6 6 4 4 3 2 2 3 4 4 3 3 4 4 5 6 7 7 8 9 8 7 8 7 6 6 4 4 4 3 4
6 6 6 7 10 11 11 11 9 8 7 6 6 5 4 3 3 4 3 4 3 3 2 2 2 3 5 6 8 9 10 10 10 9 8 7 6 6 7 7 6 6 7
6 7 7 5 11 11 12 12 10 9 8 7 6 5 4 3 4 4 5 5 5 4 5 5 5 5 5 7 8 10 12 13 13 12 11 11 10 9 8 7 7 6 7
8 7 7 8 13 16 15 14 12 9 8 8 7 5 5 4 4 4 5 5 6 6 7 8 7 7 7 8 11 13 16 16 17 18 16 15 13 12 10 9 7 6 5
8 8 10 12 18 21 18 16 13 11 9 8 8 7 7 6 6 7 7 8 8 9 9 10 11 13 13 11 12 15 16 17 17 17 15 13 11 10 10 8 9 8 5
6 7 9 17 22 21 19 16 14 12 10 9 9 9 9 8 8 8 8 9 10 11 13 14 14 15 14 12 13 15 17 18 16 14 12 11 10 7 5 4 2 2 1
4 9 18 21 22 23 21 19 16 14 13 12 12 11 11 11 10 10 11 11 12 13 14 15 16 16 14 13 14 16 17 17 15 12 10 9 9 6 4 2 1 1 2
3 5 6 14 21 23 23 21 18 16 16 16 15 12 11 12 13 12 13 13 13 15 15 15 13 13 15 12 13 13 14 14 13 11 10 7 6 4 2 2 2 2 2
2 2 5 11 18 22 22 19 18 18 16 14 13 13 13 13 13 14 14 15 16 17 16 16 14 14 12 11 11 11 9 10 11 9 8 6 3 1 1 3 3 3 1
3 3 7 10 14 17 19 17 18 15 14 14 15 14 13 14 15 16 16 17 19 19 17 16 14 12 11 9 8 7 7 7 7 6 4 3 2 1 1 3 3 2 4
3 3 6 8 10 13 15 16 15 15 15 16 15 15 14 14 16 18 19 20 20 20 19 18 16 14 12 10 7 7 7 6 4 4 3 1 1 2 4 4 2 5 6
4 4 5 7 9 12 14 14 13 16 17 17 16 16 16 16 17 18 20 22 23 21 20 18 16 14 13 11 11 10 7 5 4 4 3 3 3 3 4 4 5 6 5
6 7 9 11 13 12 12 12 13 16 18 16 16 17 17 17 19 21 22 23 23 22 22 20 18 17 15 15 11 10 9 7 5 5 4 4 3 5 6 5 5 6 6
6 8 11 12 13 14 13 13 14 17 18 17 17 18 18 19 20 20 17 17 17 18 15 13 14 14 11 10 12 11 9 8 8 6 5 5 6 7 6 7 7 8 8
Wind_Direction
260 301 274 229 216 220 214 214 206 204 206 210 212 218 220 222 225 227 228 231 232 233 234 235 237 237 237 242 241 242 242 246 249 262 272 271 269 264 264 265 263 262 262
236 227 243 230 219 212 215 220 217 210 210 215 215 215 222 224 227 229 230 233 236 238 240 239 237 239 239 242 242 243 243 246 246 232 232 311 297 260 260 261 262 265 267
228 237 219 237 226 220 220 221 221 219 215 216 218 213 225 224 227 234 233 231 233 237 239 240 240 242 242 244 244 244 242 245 245 235 215 136 233 315 247 243 253 265 269
241 258 253 253 238 241 228 224 222 221 221 218 214 210 214 211 228 234 236 235 232 237 238 242 243 245 246 247 251 250 249 245 246 238 234 239 241 202 285 258 257 248 258
223 240 239 244 243 237 229 221 222 220 220 221 221 220 222 227 233 238 242 244 243 242 242 243 245 248 248 252 254 254 250 249 246 248 244 241 245 248 237 265 251 261 264
214 224 228 212 220 217 213 211 213 215 212 213 220 227 229 235 243 245 245 245 248 244 246 245 247 249 251 251 252 253 253 253 253 252 251 243 232 222 222 237 251 248 267
203 191 186 180 183 187 182 190 200 198 205 205 211 222 228 236 243 247 251 254 252 250 252 250 251 254 256 257 252 249 247 246 247 253 255 254 257 253 259 243 231 229 245
195 188 187 181 179 178 168 165 169 166 169 171 179 197 216 225 235 244 251 252 252 256 257 257 253 250 251 250 248 245 240 239 238 238 250 254 258 267 268 248 218 192 219
208 191 175 175 171 167 164 160 156 152 156 162 165 175 193 216 232 241 247 251 253 257 260 264 264 257 250 245 239 234 229 219 215 220 230 247 251 258 266 257 247 211 182
153 148 140 151 154 150 147 147 148 148 149 159 174 197 226 239 248 254 254 254 256 260 264 264 262 255 251 243 227 213 206 207 211 218 243 261 255 247 240 236 237 233 217
135 122 113 136 136 134 136 134 135 137 136 145 149 162 183 200 224 233 240 246 249 249 249 249 230 229 229 218 210 194 198 204 212 215 222 217 216 228 227 228 209 209 196
128 127 130 139 139 135 133 130 126 126 127 130 133 138 146 152 183 218 227 227 225 229 235 227 220 211 212 198 198 197 195 203 195 186 177 180 188 184 177 178 177 173 183
127 125 126 140 144 142 140 140 139 136 136 138 141 137 136 132 131 141 181 184 186 192 194 209 207 205 199 201 196 190 177 172 163 157 158 158 164 166 163 159 151 139 146
151 153 150 161 164 160 157 153 153 153 151 156 159 149 144 151 169 175 185 191 186 186 168 210 179 149 153 158 157 158 156 151 148 146 146 146 148 146 140 140 129 125 115
178 187 178 175 177 176 173 168 168 169 166 165 167 158 152 165 191 182 203 205 199 196 192 184 185 178 178 175 170 165 154 150 137 126 122 120 123 124 124 130 124 127 119
200 195 182 178 191 192 189 181 177 180 178 171 173 169 169 179 187 177 192 183 174 168 164 155 154 145 139 152 157 154 146 140 134 128 125 117 112 104 106 104 101 97 108
192 192 197 194 200 201 196 194 186 183 185 183 177 177 177 176 178 175 173 163 159 151 147 141 139 130 123 132 149 152 145 141 135 133 132 133 132 125 119 110 110 90 82
207 208 205 202 207 206 197 193 189 187 186 189 188 187 184 179 181 173 166 158 151 148 145 137 131 125 115 126 134 138 134 130 127 125 130 130 119 112 118 117 126 147 127
256 241 229 217 206 199 192 188 186 188 189 193 195 195 192 183 179 172 164 161 157 152 146 140 135 132 124 128 131 135 131 127 125 127 130 121 108 102 97 87 162 207 208
306 280 228 203 197 190 187 186 187 194 200 203 202 196 200 191 180 177 169 164 160 151 145 140 143 139 134 136 138 139 137 132 134 136 129 117 112 99 37 13 333 323 292
358 161 177 181 181 181 184 185 194 201 209 203 200 195 197 197 190 180 176 170 164 157 152 147 144 142 143 141 144 145 146 152 148 144 143 141 134 79 33 322 336 333 283
85 135 152 163 174 183 189 194 204 207 202 197 195 198 201 198 193 187 180 175 171 163 158 154 149 152 150 150 152 160 172 164 161 157 156 165 208 257 301 301 314 266 249
167 169 165 164 178 192 202 205 211 201 196 195 199 199 197 206 197 189 181 177 177 173 168 167 163 160 158 155 157 156 161 166 161 156 153 160 232 257 287 299 290 244 266
211 203 188 187 195 204 209 219 210 201 198 199 200 200 199 201 201 198 193 186 184 185 180 180 180 179 181 181 181 177 176 172 173 182 220 264 271 268 271 270 263 270 271
214 222 221 217 220 212 214 217 213 205 202 204 205 202 202 195 197 204 200 200 200 196 192 197 195 192 200 206 204 206 213 215 217 227 243 272 264 253 260 275 277 268 257
210 214 226 226 223 218 220 218 214 209 207 203 200 198 198 196 201 202 199 208 209 205 211 216 216 215 223 218 219 218 219 217 199 226 250 266 261 263 266 272 273 264 256